This demonstration page uses our WeatherBlox Daily Observations layout. Learn more.

39.08367, -84.50855

Hourly Observations for January 27, 2019

Temp ( °F °C ) Dew Point ( °F °C ) Humidity (%) Winds ( mph kmh ) Pressure ( in mb ) Visibility ( mi km ) Precip ( " mm )
12:08 am 00:08 Cloudy with Light Rain 38 3.3 29 -1.7 70 70 SW 17 28 29.97 1015 10 16.09344 0.001 0.001
12:27 am 00:27 Cloudy with Light Rain 38 3.3 30 -1.1 73 73 SW 20 31 29.97 1015 10 16.09344 0.001 0.001
12:53 am 00:53 Cloudy with Light Rain 38 3.3 30 -1.1 73 73 WSW 18 30 29.94 1014 10 16.09344 0.001 0.001
1:53 am 01:53 Cloudy with Light Rain 37 2.8 32 0 82 82 SW 16 26 29.94 1014 10 16.09344 0.001 0.001
2:53 am 02:53 Cloudy 37 2.8 31 -0.6 79 79 WSW 16 26 29.97 1015 10 16.09344 0.001 0.001
3:06 am 03:06 Cloudy 36 2.2 31 -0.6 82 82 WSW 14 22 29.97 1015 10 16.09344 0 0
3:42 am 03:42 Cloudy 36 2.2 30 -1.1 79 79 WSW 13 20 29.97 1015 10 16.09344 0 0
3:53 am 03:53 Cloudy 36 2.2 29 -1.7 76 76 WSW 9 15 29.97 1015 10 16.09344 0 0
4:14 am 04:14 Cloudy 36 2.2 29 -1.7 76 76 WSW 10 17 29.97 1015 10 16.09344 0 0
4:39 am 04:39 Cloudy 36 2.2 28 -2.2 73 73 W 16 26 30 1016 10 16.09344 0 0
4:53 am 04:53 Cloudy 35 1.7 26 -3.3 70 70 W 14 22 30 1016 10 16.09344 0 0
5:24 am 05:24 Cloudy 35 1.7 27 -2.8 72 72 W 16 26 30 1016 10 16.09344 0 0
5:53 am 05:53 Cloudy 33 0.6 24 -4.4 70 70 WNW 18 30 30.03 1017 10 16.09344 0 0
6:53 am 06:53 Mostly Cloudy 29 -1.7 20 -6.7 69 69 WNW 13 20 30.06 1018 10 16.09344 0 0
7:53 am 07:53 Cloudy 28 -2.2 19 -7.2 69 69 W 12 19 30.09 1019 10 16.09344 0 0
8:53 am 08:53 Cloudy 27 -2.8 17 -8.3 66 66 WNW 13 20 30.12 1020 10 16.09344 0 0
9:53 am 09:53 Mostly Cloudy 27 -2.8 16 -8.9 63 63 W 12 19 30.15 1021 10 16.09344 0 0
10:15 am 10:15 Cloudy 27 -2.8 16 -8.9 63 63 WNW 10 17 30.18 1022 10 16.09344 0 0
10:48 am 10:48 Partly Cloudy 28 -2 16 -9 59 59 W 16 26 30.18 1022 10 16.09344 0 0
10:53 am 10:53 Mostly Cloudy 28 -2.2 15 -9.4 58 58 W 14 22 30.15 1021 10 16.09344 0 0
11:53 am 11:53 Partly Cloudy 30 -1.1 15 -9.4 54 54 WNW 9 15 30.12 1020 10 16.09344 0 0
12:53 pm 12:53 Sunny 32 0 16 -8.9 52 52 WNW 10 17 30.12 1020 10 16.09344 0 0
1:53 pm 13:53 Mostly Sunny 32 0 15 -9.4 50 50 W 7 11 30.12 1020 10 16.09344 0 0
2:53 pm 14:53 Sunny 32 0 12 -11.1 43 43 VRB 5 7 30.09 1019 10 16.09344 0 0
3:53 pm 15:53 Sunny 32 0 11 -11.7 41 41 WSW 10 17 30.12 1020 10 16.09344 0 0
4:53 pm 16:53 Sunny 30 -1.1 6 -14.4 36 36 W 10 17 30.12 1020 10 16.09344 0 0
5:53 pm 17:53 Sunny 28 -2.2 6 -14.4 39 39 NNW 5 7 30.12 1020 10 16.09344 0 0
6:53 pm 18:53 Clear 26 -3.3 10 -12.2 51 51 Calm 30.12 1020 10 16.09344 0 0
7:53 pm 19:53 Clear 24 -4.4 13 -10.6 62 62 ENE 5 7 30.12 1020 10 16.09344 0 0
8:53 pm 20:53 Clear 23 -5 12 -11.1 63 63 NE 9 15 30.09 1019 10 16.09344 0 0
9:53 pm 21:53 Clear 22 -5.6 12 -11.1 66 66 ENE 5 7 30.09 1019 10 16.09344 0 0
10:53 pm 22:53 Clear 21 -6.1 11 -11.7 65 65 NE 5 7 30.09 1019 10 16.09344 0 0
11:53 pm 23:53 Mostly Clear 22 -5.6 11 -11.7 63 63 Calm 30.06 1018 10 16.09344 0 0

Powered by AerisWeather